Weather in Auce

Latvia     56˚27′40″N   22˚54′18″E
temp.,
°C
wind,
m/s
gust,
m/s
humid.,
%
clouds,
%
prec.,
mm/h
press.,
hPa
HPBL,
m
27 november, fri
fri2723:00+7˚sw4996100 1.7 1008449
02:00+6˚nw389693 4.8 1008456
05:00+4˚nnw3108694 1.2 1009626
08:00+3˚nw3108853 1.2 1011477
11:00+5˚nw4973100 0.1 10131138
14:00+3˚nnw5994100 0.4 1013690
17:00+2˚nnw498097 0.2 10141065
20:00+1˚n489697 0.9 1015446
28 november, sat
sat2823:00+1˚nne379296 0.7 1016679
02:00nne279490 0.8 1018511
05:00+1˚nne288661 0.0 1020754
08:00+2˚n388681 0.1 1021475
11:00+2˚nne498577 0.1 1021873
14:00+3˚ne488787 0.1 1022748
17:00+2˚ne489499 0.3 1022670
20:00+1˚ne498695 0.3 1023551
29 november, sun
sun2923:00+1˚ne388794 0.0 1023463
02:00ne379692 0.0 1024345
05:00ne369686 0.1 1024350
08:00ne359591 0.3 1024298
11:00+1˚ene369096 0.1 1025458
14:00+1˚ene358496 0.2 1024647
17:00ene258692 0.1 1024376
20:00−1˚ene259592 0.2 1024291
30 november, mon
mon3023:00−2˚n229390 0.0 102357
02:00−2˚nw239262 0.0 1023105
05:00−1˚nw379194 0.0 1021311
08:00wnw368796 0.1 1022319
11:00w3680100 0.0 1021357
14:00+1˚wsw477698 0.0 1021548
17:00−1˚sw498648 0.0 1021309
20:00ssw499243 0.0 1021360
1 december, tue
tue123:00ssw5109682 0.0 1020397
02:00ssw6129791 1.3 1019514
05:00ssw71496100 0.8 1018623
08:00+1˚ssw71487100 0.9 1019602
11:00+1˚s71386100 0.0 1019547
14:00+1˚s5108586 0.0 1020630
17:00+1˚s599784 0.1 1021491
20:00s489692 0.1 1023465